Location: Newark
(42.8270°N, 8.3618°W)
Time: 03:28:49
(UTC+00:00)

Hubble Space Telescope - Pass Details

Date: 30 September 2020
Orbit: 536 x 540 km, 28.5° (Epoch: 21 October)

Event Time Altitude Azimuth Distance (km) Brightness Sun altitude
Exits shadow 05:24:54 - 212° (SSW) 1,945 3.2 -12.7°
Reaches altitude 10° 05:26:08 10° 196° (SSW) 1,777 3.2 -12.5°
Maximum altitude 05:27:02 11° 183° (S) 1,738 3.3 -12.3°
Drops below altitude 10° 05:27:56 10° 171° (S) 1,776 3.4 -12.2°
Sets 05:31:59 0° 131° (SE) 2,665 5.0 -11.4°
